EA3RCF Weather Reports


time (UTC)temp
F
wind
direction
speed
knots
gust
knots
rain 1hr
in
rain 24hr
in
rain mn
in
humidity
%
barometer
mb
20260507202325 54 249 0.0 0.0 0.00 0.00 0.00 87 1014.4
20260507201833 54 249 0.0 0.0 0.00 0.00 0.00 86 1014.4
20260507201316 54 249 0.0 0.0 0.00 0.00 0.00 86 1014.2
20260507200816 54 249 0.0 0.0 0.00 0.00 0.00 85 1014.2
20260507200325 55 249 0.0 0.0 0.00 0.00 0.00 85 1014.2
20260507195827 55 249 0.0 0.0 0.00 0.00 0.00 84 1014.1
20260507195335 55 250 0.0 0.0 0.00 0.00 0.00 85 1014.0
20260507194832 55 250 0.0 0.0 0.00 0.00 0.00 84 1014.0
20260507194313 55 251 0.0 0.0 0.00 0.00 0.00 84 1014.0
20260507193822 55 250 0.0 0.0 0.00 0.00 0.00 83 1014.0
20260507193324 55 259 0.0 0.0 0.00 0.00 0.00 82 1014.0
20260507192832 56 259 0.0 0.0 0.00 0.00 0.00 82 1014.0
20260507192333 56 260 0.0 0.0 0.00 0.00 0.00 81 1013.9
20260507191815 56 260 0.0 0.0 0.00 0.00 0.00 80 1013.8
20260507191322 56 261 0.0 0.0 0.00 0.00 0.00 80 1013.8
20260507190830 56 301 0.0 0.0 0.00 0.00 0.00 81 1013.8
20260507190339 56 333 0.0 0.0 0.00 0.00 0.00 80 1013.8
20260507185821 57 336 0.0 0.0 0.00 0.00 0.00 79 1013.7
20260507185319 58 337 0.0 0.0 0.00 0.00 0.00 77 1013.7
20260507184826 58 338 0.0 0.0 0.00 0.00 0.00 76 1013.7
20260507184315 58 61 0.0 0.0 0.00 0.00 0.00 75 1013.6
20260507183824 58 66 0.0 2.6 0.00 0.00 0.00 75 1013.5
20260507183332 59 87 0.0 2.6 0.00 0.00 0.00 75 1013.4
20260507182815 59 89 0.9 1.7 0.00 0.00 0.00 75 1013.3
20260507182316 59 66 0.9 2.6 0.00 0.00 0.00 75 1013.3
20260507181822 59 76 0.9 2.6 0.00 0.00 0.00 75 1013.2
20260507181324 59 85 1.7 3.5 0.00 0.00 0.00 74 1013.2
20260507180833 59 77 0.0 3.5 0.00 0.00 0.00 74 1013.2
20260507180319 59 51 1.7 3.5 0.00 0.00 0.00 73 1013.1
20260507175819 59 86 1.7 5.2 0.00 0.00 0.00 72 1013.1
20260507175328 60 60 3.5 5.2 0.00 0.00 0.00 72 1013.1
20260507174829 60 92 2.6 5.2 0.00 0.00 0.00 72 1013.0
20260507174337 60 63 3.5 7.0 0.00 0.00 0.00 72 1013.1
20260507173819 60 58 4.3 8.7 0.00 0.00 0.00 71 1013.1
20260507173320 60 65 5.2 8.7 0.00 0.00 0.00 70 1013.0
20260507172836 60 93 7.0 8.7 0.00 0.00 0.00 70 1013.0
20260507172318 61 90 5.2 9.6 0.00 0.00 0.00 69 1012.9
20260507171819 61 71 7.0 10.4 0.00 0.00 0.00 68 1012.9
20260507171328 61 73 8.7 11.3 0.00 0.00 0.00 67 1012.9
20260507170826 61 116 5.2 9.6 0.00 0.00 0.00 70 1012.9
20260507170334 61 75 4.3 7.0 0.00 0.00 0.00 70 1012.8
20260507165815 61 91 5.2 7.8 0.00 0.00 0.00 70 1012.8
20260507165316 61 42 5.2 9.6 0.00 0.00 0.00 71 1012.7
20260507164823 61 88 5.2 9.6 0.00 0.00 0.00 70 1012.8
20260507164323 61 20 6.1 10.4 0.00 0.00 0.00 70 1012.8
20260507163824 62 42 6.1 10.4 0.00 0.00 0.00 70 1012.9
20260507163333 62 67 5.2 10.4 0.00 0.00 0.00 69 1012.7
20260507162832 62 43 7.0 9.6 0.00 0.00 0.00 69 1012.6
20260507162322 62 46 5.2 8.7 0.00 0.00 0.00 68 1012.6
20260507161824 62 42 5.2 8.7 0.00 0.00 0.00 67 1012.7
20260507161326 62 61 6.1 7.0 0.00 0.00 0.00 66 1012.7
20260507160814 62 51 4.3 10.4 0.00 0.00 0.00 66 1012.6
20260507160316 63 37 6.1 10.4 0.00 0.00 0.00 65 1012.6
20260507155813 63 87 6.1 7.8 0.00 0.00 0.00 64 1012.6
20260507155329 63 80 5.2 7.0 0.00 0.00 0.00 65 1012.6
20260507154818 63 56 3.5 9.6 0.00 0.00 0.00 65 1012.5
20260507153835 63 61 5.2 8.7 0.00 0.00 0.00 64 1012.5
20260507153317 63 89 7.0 11.3 0.00 0.00 0.00 64 1012.4
20260507152818 63 27 4.3 11.3 0.00 0.00 0.00 64 1012.3
20260507152325 63 82 6.1 10.4 0.00 0.00 0.00 64 1012.3
20260507151827 63 98 5.2 9.6 0.00 0.00 0.00 64 1012.4
20260507151333 64 136 5.2 9.6 0.00 0.00 0.00 63 1012.4
20260507150817 64 65 7.0 10.4 0.00 0.00 0.00 63 1012.4
20260507150340 64 82 7.0 10.4 0.00 0.00 0.00 63 1012.4
20260507145819 0 0.0 0.0 0.00 0.00 0.00 1012.5
20260507145320 0 0.0 0.0 0.00 0.00 0.00 1012.3
20260507144825 0 0.0 0.0 0.00 0.00 0.00 1012.2
20260507144414 0 0.0 0.0 0.00 0.00 0.00 1012.3
20260507143820 0 0.0 0.0 0.00 0.00 0.00 1012.3
20260507143321 0 0.0 0.0 0.00 0.00 0.00 1012.2
20260507142827 0 0.0 0.0 0.00 0.00 0.00 1012.2
20260507141851 0 0.0 0.0 0.00 0.00 0.00 1012.2
20260507141318 0 0.0 0.0 0.00 0.00 0.00 1012.3
20260507140827 0 0.0 0.0 0.00 0.00 0.00 1012.2
20260507140329 0 0.0 0.0 0.00 0.00 0.00 1012.3
20260507135856 0 0.0 0.0 0.00 0.00 0.00 1012.3
20260507135350 0 0.0 0.0 0.00 0.00 0.00 1012.3
20260507134816 0 0.0 0.0 0.00 0.00 0.00 1012.4
20260507134324 0 0.0 0.0 0.00 0.00 0.00 1012.5
20260507133826 0 0.0 0.0 0.00 0.00 0.00 1012.5
20260507133355 0 0.0 0.0 0.00 0.00 0.00 1012.5
20260507132905 0 0.0 0.0 0.00 0.00 0.00 1012.6
20260507132316 0 0.0 0.0 0.00 0.00 0.00 1012.7
20260507131825 0 0.0 0.0 0.00 0.00 0.00 1012.7
20260507131326 0 0.0 0.0 0.00 0.00 0.00 1012.7
20260507130850 0 0.0 0.0 0.00 0.00 0.00 1012.8
20260507130404 0 0.0 0.0 0.00 0.00 0.00 1012.9
20260507125837 0 0.0 0.0 0.00 0.00 0.00 1012.9
20260507125319 0 0.0 0.0 0.00 0.00 0.00 1012.9
20260507124821 0 0.0 0.0 0.00 0.00 0.00 1012.9
20260507123912 0 0.0 0.0 0.00 0.00 0.00 1013.0
20260507123318 0 0.0 0.0 0.00 0.00 0.00 1012.9
20260507122818 0 0.0 0.0 0.00 0.00 0.00 1013.0
20260507122327 0 0.0 0.0 0.00 0.00 0.00 1013.0
20260507120818 0 0.0 0.0 0.00 0.00 0.00 1013.1
20260507120326 0 0.0 0.0 0.00 0.00 0.00 1013.0
20260507115826 0 0.0 0.0 0.00 0.00 0.00 1013.2
20260507114324 0 0.0 0.0 0.00 0.00 0.00 1013.3
20260507113825 0 0.0 0.0 0.00 0.00 0.00 1013.3
20260507113334 0 0.0 0.0 0.00 0.00 0.00 1013.3
20260507112850 0 0.0 0.0 0.00 0.00 0.00 1013.4
20260507112411 0 0.0 0.0 0.00 0.00 0.00 1013.4
20260507111818 0 0.0 0.0 0.00 0.00 0.00 1013.5
20260507111320 0 0.0 0.0 0.00 0.00 0.00 1013.5
20260507110828 0 0.0 0.0 0.00 0.00 0.00 1013.7
20260507110349 0 0.0 0.0 0.00 0.00 0.00 1013.8
20260507105910 0 0.0 0.0 0.00 0.00 0.00 1013.9
20260507105318 0 0.0 0.0 0.00 0.00 0.00 1013.8
20260507104820 0 0.0 0.0 0.00 0.00 0.00 1013.8
20260507104328 0 0.0 0.0 0.00 0.00 0.00 1013.8
20260507103850 0 0.0 0.0 0.00 0.00 0.00 1013.8
20260507103411 0 0.0 0.0 0.00 0.00 0.00 1013.9
20260507102818 0 0.0 0.0 0.00 0.00 0.00 1013.9
20260507102320 0 0.0 0.0 0.00 0.00 0.00 1013.9
20260507101829 0 0.0 0.0 0.00 0.00 0.00 1014.0
20260507101351 0 0.0 0.0 0.00 0.00 0.00 1013.9
20260507100912 0 0.0 0.0 0.00 0.00 0.00 1014.1
20260507100319 0 0.0 0.0 0.00 0.00 0.00 1014.1
20260507095821 0 0.0 0.0 0.00 0.00 0.00 1014.2
20260507095328 0 0.0 0.0 0.00 0.00 0.00 1014.1
20260507094849 0 0.0 0.0 0.00 0.00 0.00 1014.2
20260507094410 0 0.0 0.0 0.00 0.00 0.00 1014.2
20260507093814 0 0.0 0.0 0.00 0.00 0.00 1014.1
20260507093317 0 0.0 0.0 0.00 0.00 0.00 1014.1
20260507092825 0 0.0 0.0 0.00 0.00 0.00 1014.1
20260507091850 0 0.0 0.0 0.00 0.00 0.00 1014.2
20260507091317 0 0.0 0.0 0.00 0.00 0.00 1014.1
20260507090823 0 0.0 0.0 0.00 0.00 0.00 1014.1
20260507090324 0 0.0 0.0 0.00 0.00 0.00 1014.1
20260507085403 0 0.0 0.0 0.00 0.00 0.00 1014.2
20260507084837 0 0.0 0.0 0.00 0.00 0.00 1014.2
20260507084319 0 0.0 0.0 0.00 0.00 0.00 1014.2
20260507083822 0 0.0 0.0 0.00 0.00 0.00 1014.3
20260507083350 0 0.0 0.0 0.00 0.00 0.00 1014.4
20260507082319 0 0.0 0.0 0.00 0.00 0.00 1014.4
20260507081822 0 0.0 0.0 0.00 0.00 0.00 1014.5
20260507081330 0 0.0 0.0 0.00 0.00 0.00 1014.5
20260507080851 0 0.0 0.0 0.00 0.00 0.00 1014.5
20260507080412 0 0.0 0.0 0.00 0.00 0.00 1014.5
20260507075819 0 0.0 0.0 0.00 0.00 0.00 1014.6
20260507075320 0 0.0 0.0 0.00 0.00 0.00 1014.7
20260507074828 0 0.0 0.0 0.00 0.00 0.00 1014.6
20260507074350 0 0.0 0.0 0.00 0.00 0.00 1014.6
20260507073911 0 0.0 0.0 0.00 0.00 0.00 1014.5
20260507073319 0 0.0 0.0 0.00 0.00 0.00 1014.6
20260507072820 0 0.0 0.0 0.00 0.00 0.00 1014.6
20260507072329 0 0.0 0.0 0.00 0.00 0.00 1014.5
20260507071851 0 0.0 0.0 0.00 0.00 0.00 1014.4
20260507071412 0 0.0 0.0 0.00 0.00 0.00 1014.5
20260507070819 0 0.0 0.0 0.00 0.00 0.00 1014.4
20260507070321 0 0.0 0.0 0.00 0.00 0.00 1014.4
20260507065827 0 0.0 0.0 0.00 0.00 0.00 1014.4
20260507064906 0 0.0 0.0 0.00 0.00 0.00 1014.4
20260507064333 0 0.0 0.0 0.00 0.00 0.00 1014.4
20260507063840 0 0.0 0.0 0.00 0.00 0.00 1014.5
20260507063321 0 0.0 0.0 0.00 0.00 0.00 1014.4
20260507062405 0 0.0 0.0 0.00 0.00 0.00 1014.2
20260507061840 0 0.0 0.0 0.00 0.00 0.00 1014.2
20260507061322 0 0.0 0.0 0.00 0.00 0.00 1014.1
20260507060823 0 0.0 0.0 0.00 0.00 0.00 1014.1
20260507055826 0 0.0 0.0 0.00 0.00 0.00 1014.1
20260507055328 0 0.0 0.0 0.00 0.00 0.00 1014.2
20260507054836 0 0.0 0.0 0.00 0.00 0.00 1014.1
20260507054318 0 0.0 0.0 0.00 0.00 0.00 1014.1
20260507053904 0 0.0 0.0 0.00 0.00 0.00 1014.1
20260507053358 0 0.0 0.0 0.00 0.00 0.00 1014.1
20260507052825 0 0.0 0.0 0.00 0.00 0.00 1014.1
20260507052332 0 0.0 0.0 0.00 0.00 0.00 1014.1
20260507051832 0 0.0 0.0 0.00 0.00 0.00 1014.0
20260507051401 0 0.0 0.0 0.00 0.00 0.00 1014.0
20260507050855 0 0.0 0.0 0.00 0.00 0.00 1014.0
20260507050322 0 0.0 0.0 0.00 0.00 0.00 1014.0
20260507045830 0 0.0 0.0 0.00 0.00 0.00 1013.9
20260507045331 0 0.0 0.0 0.00 0.00 0.00 1013.9
20260507044859 0 0.0 0.0 0.00 0.00 0.00 1013.9
20260507043840 0 0.0 0.0 0.00 0.00 0.00 1013.9
20260507043322 0 0.0 0.0 0.00 0.00 0.00 1013.9
20260507042823 0 0.0 0.0 0.00 0.00 0.00 1013.9
20260507041321 0 0.0 0.0 0.00 0.00 0.00 1013.9
20260507040818 0 0.0 0.0 0.00 0.00 0.00 1013.8
20260507040329 0 0.0 0.0 0.00 0.00 0.00 1013.9
20260507035856 0 0.0 0.0 0.00 0.00 0.00 1013.9
20260507034817 0 0.0 0.0 0.00 0.00 0.00 1013.9
20260507034325 0 0.0 0.0 0.00 0.00 0.00 1013.8
20260507033828 0 0.0 0.0 0.00 0.00 0.00 1013.9
20260507032851 0 0.0 0.0 0.00 0.00 0.00 1013.9
20260507032325 0 0.0 0.0 0.00 0.00 0.00 1013.8
20260507031828 0 0.0 0.0 0.00 0.00 0.00 1013.9
20260507031336 0 0.0 0.0 0.00 0.00 0.00 1013.8
20260507030858 0 0.0 0.0 0.00 0.00 0.00 1013.8
20260507025821 0 0.0 0.0 0.00 0.00 0.00 1013.9
20260507025322 0 0.0 0.0 0.00 0.00 0.00 1013.9
20260507024829 0 0.0 0.0 0.00 0.00 0.00 1014.0
20260507024357 0 0.0 0.0 0.00 0.00 0.00 1014.0
20260507023911 0 0.0 0.0 0.00 0.00 0.00 1013.9
20260507023317 0 0.0 0.0 0.00 0.00 0.00 1014.0
20260507022817 0 0.0 0.0 0.00 0.00 0.00 1014.1
20260507022327 0 0.0 0.0 0.00 0.00 0.00 1014.0
20260507021855 0 0.0 0.0 0.00 0.00 0.00 1014.1
20260507021409 0 0.0 0.0 0.00 0.00 0.00 1014.1
20260507020836 0 0.0 0.0 0.00 0.00 0.00 1014.1
20260507020319 0 0.0 0.0 0.00 0.00 0.00 1014.0
20260507015827 0 0.0 0.0 0.00 0.00 0.00 1014.0
20260507014850 0 0.0 0.0 0.00 0.00 0.00 1014.1
20260507014317 0 0.0 0.0 0.00 0.00 0.00 1014.1
20260507013824 0 0.0 0.0 0.00 0.00 0.00 1014.2
20260507013326 0 0.0 0.0 0.00 0.00 0.00 1014.2
20260507011826 0 0.0 0.0 0.00 0.00 0.00 1014.4
20260507011328 0 0.0 0.0 0.00 0.00 0.00 1014.4
20260507010835 0 0.0 0.0 0.00 0.00 0.00 1014.4
20260507010404 0 0.0 0.0 0.00 0.00 0.00 1014.5
20260507005914 0 0.0 0.0 0.00 0.00 0.00 1014.5
20260507005321 0 0.0 0.0 0.00 0.00 0.00 1014.6
20260507004821 0 0.0 0.0 0.00 0.00 0.00 1014.7
20260507004329 0 0.0 0.0 0.00 0.00 0.00 1014.6
20260507003850 0 0.0 0.0 0.00 0.00 0.00 1014.7
20260507003410 0 0.0 0.0 0.00 0.00 0.00 1014.8
20260507002816 0 0.0 0.0 0.00 0.00 0.00 1014.9
20260507002316 0 0.0 0.0 0.00 0.00 0.00 1014.9
20260507001825 0 0.0 0.0 0.00 0.00 0.00 1014.9
20260507000908 0 0.0 0.0 0.00 0.00 0.00 1015.0
20260507000314 0 0.0 0.0 0.00 0.00 0.00 1015.0
20260506235814 0 0.0 0.0 0.00 0.00 0.00 1015.1
20260506235322 0 0.0 0.0 0.00 0.00 0.00 1015.1
20260506234405 0 0.0 0.0 0.00 0.00 0.00 1015.2
20260506233831 0 0.0 0.0 0.00 0.00 0.00 1015.1
20260506233313 0 0.0 0.0 0.00 0.00 0.00 1015.1
20260506232821 0 0.0 0.0 0.00 0.00 0.00 1015.3
20260506231905 0 0.0 0.0 0.00 0.00 0.00 1015.2
20260506231338 0 0.0 0.0 0.00 0.00 0.00 1015.3
20260506230818 0 0.0 0.0 0.00 0.00 0.00 1015.2
20260506230319 0 0.0 0.0 0.00 0.00 0.00 1015.3
20260506225908 0 0.0 0.0 0.00 0.00 0.00 1015.3
20260506225358 0 0.0 0.0 0.00 0.00 0.00 1015.3
20260506224831 0 0.0 0.0 0.00 0.00 0.00 1015.3
20260506224316 0 0.0 0.0 0.00 0.00 0.00 1015.2
20260506223817 0 0.0 0.0 0.00 0.00 0.00 1015.2
20260506223326 0 0.0 0.0 0.00 0.00 0.00 1015.2
20260506222911 0 0.0 0.0 0.00 0.00 0.00 1015.2
20260506222317 0 0.0 0.0 0.00 0.00 0.00 1015.1
20260506221818 0 0.0 0.0 0.00 0.00 0.00 1015.1
20260506221327 0 0.0 0.0 0.00 0.00 0.00 1015.1
20260506220858 0 0.0 0.0 0.00 0.00 0.00 1015.2
20260506220411 0 0.0 0.0 0.00 0.00 0.00 1015.1
20260506215817 0 0.0 0.0 0.00 0.00 0.00 1015.1
20260506215317 0 0.0 0.0 0.00 0.00 0.00 1015.0
20260506214825 0 0.0 0.0 0.00 0.00 0.00 1015.1
20260506214326 0 0.0 0.0 0.00 0.00 0.00 1015.1
20260506213855 0 0.0 0.0 0.00 0.00 0.00 1015.1
20260506213321 0 0.0 0.0 0.00 0.00 0.00 1015.1
20260506212826 0 0.0 0.0 0.00 0.00 0.00 1015.1
20260506212327 0 0.0 0.0 0.00 0.00 0.00 1015.1
20260506211856 0 0.0 0.0 0.00 0.00 0.00 1015.0
20260506211350 0 0.0 0.0 0.00 0.00 0.00 1015.0
20260506210839 0 0.0 0.0 0.00 0.00 0.00 1015.0
20260506210320 0 0.0 0.0 0.00 0.00 0.00 1015.0
20260506205816 0 0.0 0.0 0.00 0.00 0.00 1014.9
20260506205412 0 0.0 0.0 0.00 0.00 0.00 1014.9
20260506204859 0 0.0 0.0 0.00 0.00 0.00 1014.8
20260506204333 0 0.0 0.0 0.00 0.00 0.00 1014.8
20260506203833 0 0.0 0.0 0.00 0.00 0.00 1014.8
20260506203339 0 0.0 0.0 0.00 0.00 0.00 1014.8
20260506202905 0 0.0 0.0 0.00 0.00 0.00 1014.7